[[{"header":{"parameterUnit":"m.s-1","parameterCategory":1,"la1":30.2991,"la2":30.254,"lo1":-89.0895,"lo2":-89.0444,"dy":0.0017,"dx":0.0017,"nx":28,"ny":28,"refTime":"2025-02-10T03:00:00:Z","depth":0,"parameterNumber":2,"parameterNumberName":"U-component_of_WINDS"},"data":[0,0,0,0,0,0,0,0,0,0,0,0,0,0,0,0,0,0,0,0,0,0,0,0,0,0,0,0,0,0,0,0,0,0,0,0,0,0,0,0,0,0,0,0,0,0,0,0,0,0,0,0,0,0,0,0,0,0,-2.9703,-2.9703,0,-2.9729,-2.9729,-2.973,-2.9687,-2.9685,-2.9684,-2.9682,-2.9709,-2.9711,-2.9713,0,0,0,0,0,0,0,0,0,0,0,0,0,-2.9614,-2.9616,-2.9703,-2.9703,-2.9703,-2.9729,-2.9729,-2.973,-2.9687,-2.9685,-2.9683,-2.9682,-2.9708,-2.9711,-2.9713,0,0,0,0,0,0,0,0,0,0,0,0,0,-2.9648,-2.9616,-2.9703,-2.9685,-2.9684,-2.9729,-2.9729,-2.973,-2.9687,-2.9685,-2.9683,-2.9681,-2.9707,-2.971,-2.9713,-2.9777,0,0,-2.9723,-2.9724,0,0,0,0,0,0,0,0,-2.9646,-2.9651,-2.9687,-2.9686,-2.9685,-2.9702,-2.9708,-2.9746,-2.9688,-2.9686,-2.9682,-2.968,-2.9708,-2.9711,-2.9721,-2.9778,-2.9779,-2.9723,-2.9725,-2.9726,-2.9727,0,0,0,0,0,0,0,-2.9643,-2.965,-2.9713,-2.9688,-2.9687,-2.9675,-2.9678,-2.9715,-2.9709,-2.9686,-2.9683,-2.9686,-2.9707,-2.9718,-2.9721,-2.978,-2.9723,-2.9726,-2.9728,-2.9729,-2.9887,-2.9889,0,0,0,0,0,0,-2.9643,-2.9648,-2.9712,-2.9714,-2.966,-2.9679,-2.9681,-2.9699,-2.9709,-2.9708,-2.9688,-2.9684,-2.9714,-2.9718,-2.9722,-2.9795,-2.9726,-2.9729,-2.9731,-2.9885,-2.9888,-2.989,0,0,0,0,0,0,-2.9642,-2.965,-2.9711,-2.968,-2.9687,-2.9683,-2.9703,-2.9701,-2.9711,-2.9711,-2.9709,-2.9701,-2.9712,-2.9718,-2.9763,-2.9795,-2.9731,-2.9734,-2.9882,-2.9886,-2.9889,-2.9943,0,0,0,0,0,0,-2.9639,-2.9649,-2.9674,-2.9681,-2.9689,-2.9752,-2.9705,-2.9703,-2.9717,-2.9712,-2.9722,-2.9721,-2.9711,-2.9759,-2.9766,-2.9798,-2.9736,-2.9879,-2.9884,-2.9888,-2.9938,-2.9948,-2.9956,0,0,0,0,0,-2.9636,-2.9689,-2.9675,-2.9683,-2.972,-2.9754,-2.9759,-2.9746,-2.972,-2.9744,-2.9743,-2.9721,-2.9791,-2.9764,-2.9772,-2.9806,-2.9877,-2.9883,-2.9888,-2.9934,-2.9946,-2.9956,0,0,0,0,0,0,-2.9686,-2.9689,-2.9675,-2.9731,-2.9743,-2.9747,-2.9777,-2.9759,-2.9779,-2.9774,-2.9757,-2.9759,-2.9808,-2.9811,-2.9781,-2.9866,-2.9829,-2.9837,-2.9862,-2.9873,-2.9882,-2.9879,-2.9739,0,0,0,0,0,-2.9703,-2.9732,-2.9733,-2.9782,-2.9789,-2.9782,-2.9797,-2.9786,-2.9797,-2.9802,-2.9805,-2.9817,-2.9841,-2.9857,-2.988,-2.9938,-2.9939,-2.9966,-2.9975,-2.9982,-2.9988,-3.0017,-3.0028,-2.9907,-2.9907,-2.9907,0,0,-2.974,-2.9745,-2.9764,-2.9792,-2.98,-2.9829,-2.9787,-2.9819,-2.984,-2.9807,-2.9849,-2.9852,-2.9864,-2.9915,-2.9938,-2.992,-3.0021,-2.9989,-2.9994,-2.9996,-3.0023,-3.0035,-3.0045,-2.9911,-2.991,-2.991,0,0,-2.982,-2.9828,-2.9869,-2.9877,-2.9889,-2.9884,-2.9894,-2.9901,-2.99,-2.9943,-2.9918,-2.9942,-2.9985,-2.9994,-3.0004,-3.0086,-3.0065,-3.0094,-3.014,-3.0168,-3.0177,-3.0186,-3.0213,-3.0223,-3.01,-3.01,-3.01,0,-2.9864,-2.9907,-2.9892,-2.9926,-2.9938,-2.9909,-2.9949,-2.9958,-2.9977,-2.9986,-2.9965,-3.0017,-3.0023,-3.0075,-3.0094,-3.0105,-3.0114,-3.0092,-3.0177,-3.0186,-3.0193,-3.0219,-3.0229,-3.0103,-3.0103,-3.0102,-3.0102,0,-2.9958,-2.9988,-3.002,-3.0037,-3.0053,-3.0091,-3.0081,-3.0098,-3.0086,-3.0082,-3.0125,-3.0131,-3.0153,-3.0165,-3.0154,-3.0215,-3.0203,-3.018,-3.0143,-3.0208,-3.0232,-3.0242,-3.0108,-3.0107,-3.0106,-3.0105,0,0,-3.0072,-3.008,-3.0091,-3.0098,-3.0108,-3.013,-3.0165,-3.0187,-3.0201,-3.0215,-3.0243,-3.0279,-3.0257,-3.0269,-3.0258,-3.0283,-3.0345,-3.0257,-3.0257,-3.0271,-3.041,-3.0426,-3.0438,-3.0332,-3.0334,-3.0335,-3.0408,0,-3.015,-3.021,-3.0197,-3.0255,-3.0281,-3.0253,-3.0283,-3.0292,-3.029,-3.0311,-3.0308,-3.0333,-3.0304,-3.0311,-3.0334,-3.0332,-3.0372,-3.0327,-3.0356,-3.0357,-3.0352,-3.045,-3.0467,-3.0536,-3.0418,-3.0419,-3.0421,0,-3.025,-3.0266,-3.0327,-3.033,-3.0341,-3.0368,-3.0385,-3.0406,-3.0415,-3.0412,-3.0424,-3.0407,-3.0441,-3.0404,-3.0449,-3.0418,-3.0429,-3.043,-3.0432,-3.0433,-3.0392,-3.0452,-3.0558,-3.0568,-3.0435,-3.0434,-3.0433,0,-3.0324,-3.0361,-3.0401,-3.0408,-3.0414,-3.0433,-3.0437,-3.0444,-3.0456,-3.0472,-3.0479,-3.0499,-3.0509,-3.0524,-3.0512,-3.0487,-3.0558,-3.0521,-3.0555,-3.0555,-3.057,-3.0569,-3.0678,-3.058,-3.058,-3.058,-3.058,0,-3.0412,-3.0449,-3.0434,-3.0459,-3.0499,-3.0484,-3.0525,-3.0525,-3.0531,-3.0554,-3.0532,-3.0554,-3.0539,-3.056,-3.0552,-3.0588,-3.0594,-3.0591,-3.0588,-3.0592,-3.0592,-3.0598,-3.0592,-3.0583,-3.0582,-3.0582,-3.0581,0,-3.0501,-3.0492,-3.0534,-3.0535,-3.0536,-3.0566,-3.0567,-3.059,-3.0585,-3.0615,-3.0621,-3.0614,-3.0637,-3.0628,-3.0653,-3.0647,-3.0694,-3.0686,-3.0691,-3.0688,-3.0722,-3.0718,-3.0837,-3.085,-3.0746,-3.0747,-3.0748,0,-3.0557,-3.0585,-3.0589,-3.0602,-3.0607,-3.063,-3.0642,-3.0628,-3.0641,-3.0653,-3.0673,-3.0695,-3.0711,-3.0749,-3.0746,-3.0764,-3.0755,-3.0795,-3.0758,-3.076,-3.0753,-3.0751,-3.0752,-3.0803,-3.0804,-3.0805,-3.0806,0,-3.0656,-3.065,-3.0668,-3.0685,-3.07,-3.0713,-3.0724,-3.0736,-3.0722,-3.0738,-3.0761,-3.0774,-3.0798,-3.0819,-3.0835,-3.0838,-3.0819,-3.0818,-3.0826,-3.0829,-3.083,-3.0828,-3.0709,-3.0815,-3.0814,-3.0813,-3.0813,-3.0812,-3.0729,-3.0751,-3.0757,-3.0778,-3.0784,-3.0794,-3.0814,-3.0812,-3.083,-3.0849,-3.0839,-3.0865,-3.0872,-3.0891,-3.0897,-3.0916,-3.09,-3.0913,-3.0916,-3.0919,-3.0922,-3.0829,-3.092,-3.0919,-3.0919,-3.0919,-3.0919,0,-3.0825,-3.0827,-3.0846,-3.0861,-3.0877,-3.0857,-3.0868,-3.0882,-3.0905,-3.0913,-3.0929,-3.0954,-3.0974,-3.0972,-3.0989,-3.1005,-3.0997,-3.101,-3.1008,-3.1009,-3.0937,-3.0927,-3.1017,-3.1017,-3.1017,-3.1017,-3.1017,-3.1017,-3.0877,-3.0913,-3.0907,-3.0946,-3.0947,-3.0972,-3.098,-3.0988,-3.0994,-3.1023,-3.1038,-3.1037,-3.104,-3.1057,-3.1074,-3.1073,-3.1079,-3.1096,-3.1091,-3.1024,-3.1014,-3.1005,-3.0995,-3.1098,-3.1098,-3.1161,-3.1161,-3.1162]},{"header":{"parameterUnit":"m.s-1","parameterCategory":1,"la1":30.2991,"la2":30.254,"lo1":-89.0895,"lo2":-89.0444,"dy":0.0017,"dx":0.0017,"nx":28,"ny":28,"refTime":"2025-02-10T03:00:00:Z","depth":0,"parameterNumber":3,"parameterNumberName":"V-component_of_WINDS"},"data":[0,0,0,0,0,0,0,0,0,0,0,0,0,0,0,0,0,0,0,0,0,0,0,0,0,0,0,0,0,0,0,0,0,0,0,0,0,0,0,0,0,0,0,0,0,0,0,0,0,0,0,0,0,0,0,0,0,0,0.0833,0.0836,0,0.1094,0.1097,0.11,0.1178,0.1176,0.1175,0.1174,0.1456,0.1464,0.1473,0,0,0,0,0,0,0,0,0,0,0,0,0,0.042,0.0427,0.0833,0.0836,0.0839,0.1093,0.1097,0.1101,0.1178,0.1176,0.1174,0.1173,0.1453,0.1463,0.1474,0,0,0,0,0,0,0,0,0,0,0,0,0,0.0632,0.043,0.0832,0.0908,0.0917,0.1093,0.1097,0.1102,0.1178,0.1176,0.1174,0.1172,0.1449,0.1462,0.1475,0.1598,0,0,0.1515,0.1521,0,0,0,0,0,0,0,0,0.062,0.0647,0.0894,0.0903,0.0914,0.1101,0.1055,0.1269,0.1179,0.108,0.1173,0.1171,0.134,0.1362,0.1416,0.1611,0.1623,0.1517,0.1525,0.153,0.1534,0,0,0,0,0,0,0,0.0605,0.0637,0.0937,0.0897,0.091,0.0935,0.0963,0.1096,0.1219,0.1088,0.1094,0.1123,0.1346,0.1403,0.1423,0.1628,0.1516,0.1528,0.1536,0.1541,0.1947,0.195,0,0,0,0,0,0,0.0575,0.0624,0.0928,0.0944,0.0758,0.0944,0.0976,0.1043,0.1218,0.1242,0.1125,0.1126,0.1382,0.1408,0.1434,0.1596,0.153,0.1543,0.155,0.1944,0.1948,0.1951,0,0,0,0,0,0,0.0566,0.0602,0.0918,0.0786,0.0828,0.0954,0.1029,0.1049,0.1107,0.1245,0.1269,0.116,0.1381,0.1415,0.1558,0.1606,0.1548,0.156,0.1941,0.1945,0.1949,0.1916,0,0,0,0,0,0,0.0554,0.0598,0.0641,0.0786,0.0835,0.1031,0.1032,0.1056,0.1128,0.1132,0.1285,0.1308,0.1382,0.1538,0.1571,0.1623,0.1571,0.1937,0.1943,0.1948,0.1913,0.1918,0.1923,0,0,0,0,0,0.0539,0.0622,0.0643,0.0679,0.089,0.1034,0.1062,0.1141,0.1131,0.118,0.127,0.1303,0.1594,0.1551,0.159,0.1647,0.1935,0.1941,0.1948,0.1911,0.1917,0.1922,0,0,0,0,0,0,0.0483,0.0643,0.0667,0.0798,0.0902,0.1046,0.1109,0.1144,0.1256,0.1256,0.1354,0.1389,0.1526,0.1601,0.1549,0.178,0.1767,0.1781,0.1726,0.1733,0.1737,0.1719,0.1582,0,0,0,0,0,0.0485,0.0583,0.0719,0.0823,0.0873,0.0982,0.1047,0.11,0.1213,0.1258,0.1358,0.1471,0.1589,0.1665,0.178,0.1924,0.1963,0.1983,0.1987,0.1991,0.2003,0.2094,0.2106,0.1972,0.1972,0.1972,0,0,0.0493,0.0592,0.0648,0.0814,0.09,0.1006,0.1018,0.1128,0.121,0.1276,0.1417,0.1495,0.1629,0.1774,0.1843,0.1841,0.2049,0.1999,0.2,0.2012,0.2101,0.2114,0.2125,0.1976,0.1976,0.1975,0,0,0.0561,0.0642,0.074,0.0827,0.0956,0.1029,0.1053,0.1193,0.1247,0.1389,0.1443,0.1545,0.1744,0.1839,0.1913,0.2024,0.2062,0.2059,0.2085,0.2172,0.2183,0.2193,0.2239,0.2254,0.207,0.207,0.207,0,0.0555,0.071,0.0788,0.0896,0.0972,0.1033,0.1139,0.122,0.1382,0.1436,0.143,0.1685,0.1779,0.1951,0.1978,0.2034,0.2071,0.2043,0.2174,0.2185,0.2195,0.2241,0.2257,0.2069,0.2069,0.207,0.207,0,0.07,0.0808,0.0873,0.1025,0.1108,0.1214,0.1315,0.139,0.1437,0.1513,0.1662,0.1777,0.192,0.1965,0.2011,0.2147,0.2142,0.2153,0.2143,0.2206,0.2251,0.2268,0.2068,0.2068,0.2069,0.2069,0,0,0.0739,0.0935,0.0958,0.1031,0.1181,0.1269,0.1382,0.1518,0.1585,0.1696,0.1799,0.1968,0.1982,0.2066,0.2125,0.2201,0.229,0.2205,0.221,0.2222,0.2456,0.2449,0.2467,0.2315,0.2319,0.2322,0.2447,0,0.083,0.1027,0.1104,0.1269,0.1374,0.1437,0.1537,0.1644,0.172,0.1826,0.1912,0.2032,0.2037,0.209,0.2166,0.2262,0.234,0.2254,0.242,0.2425,0.2388,0.249,0.2482,0.2594,0.2464,0.2467,0.2469,0,0.0961,0.1072,0.1246,0.1389,0.1436,0.1523,0.1659,0.1756,0.1883,0.1933,0.203,0.2086,0.2215,0.2194,0.2379,0.2319,0.2392,0.245,0.2457,0.2479,0.2453,0.2521,0.2631,0.265,0.2496,0.2494,0.2492,0,0.098,0.1172,0.1303,0.1363,0.1531,0.1593,0.1667,0.179,0.187,0.199,0.2045,0.2179,0.2255,0.2362,0.2457,0.2431,0.2636,0.262,0.2688,0.2686,0.2731,0.2727,0.286,0.2769,0.2769,0.2768,0.2768,0,0.1076,0.1181,0.1314,0.1395,0.1519,0.1609,0.1731,0.181,0.1921,0.2024,0.2088,0.2185,0.2301,0.2416,0.2491,0.2638,0.267,0.272,0.274,0.2717,0.2712,0.277,0.2766,0.2773,0.2772,0.2771,0.277,0,0.1117,0.1209,0.1357,0.1505,0.1545,0.163,0.1761,0.1846,0.1925,0.2056,0.2093,0.222,0.2359,0.2462,0.2643,0.2694,0.2852,0.287,0.2808,0.2819,0.2883,0.2878,0.3062,0.3094,0.2975,0.2976,0.2977,0,0.1174,0.1257,0.1414,0.1485,0.1558,0.1673,0.1755,0.1849,0.1933,0.2087,0.2156,0.2298,0.2418,0.2639,0.2752,0.2893,0.2918,0.2973,0.294,0.2917,0.2927,0.2923,0.2936,0.2978,0.2979,0.298,0.298,0,0.1268,0.1311,0.1422,0.1553,0.1648,0.1756,0.1866,0.1923,0.2039,0.2132,0.2273,0.2365,0.255,0.2695,0.2848,0.2932,0.298,0.2989,0.3014,0.2994,0.2957,0.2985,0.2827,0.2986,0.2985,0.2985,0.2984,0.2984,0.1324,0.1403,0.1527,0.1652,0.1744,0.1847,0.1936,0.2027,0.2144,0.23,0.235,0.2498,0.2632,0.2841,0.2928,0.3051,0.3051,0.3085,0.3094,0.3103,0.3105,0.2933,0.3079,0.3079,0.3079,0.3079,0.3079,0,0.1426,0.1509,0.1623,0.1775,0.1876,0.1905,0.2031,0.2116,0.2243,0.236,0.2477,0.2644,0.2786,0.291,0.306,0.3135,0.3161,0.3172,0.317,0.3191,0.3092,0.3059,0.3149,0.3149,0.3149,0.3149,0.3149,0.3149,0.1491,0.1629,0.1687,0.1876,0.1961,0.2102,0.2173,0.2271,0.2366,0.2548,0.2665,0.2743,0.2868,0.3028,0.3162,0.3196,0.3252,0.3258,0.3298,0.3205,0.3197,0.3189,0.3158,0.3268,0.3268,0.3388,0.3389,0.339]}]]